Weather History for Warsaw, IN

Change the Weather History Date:

Monday, November 24, 2014

  Actual Average Record
Temperature  
Mean Temperature 42 °F -  
Max Temperature 53 °F 42 °F 61 °F (1958)
Min Temperature 30 °F 26 °F -4 °F (1950)
Degree Days  
Heating Degree Days 24    
Moisture  
Dew Point 39 °F    
Average Humidity 92    
Maximum Humidity 100    
Minimum Humidity 81    
Precipitation  
Precipitation 0.20 in - - ()
Sea Level Pressure  
Sea Level Pressure 29.38 in    
Wind  
Wind Speed 14 mph (SW)    
Max Wind Speed 32 mph    
Max Gust Speed 45 mph    
Visibility 8 miles    
Events Rain , Snow    
Averages and records for this station are not official NWS values.
T = Trace of Precipitation, MM = Missing Value Source: NWS Daily Summary

Daily Weather History Graph

Daily Weather History Graph

Search for Another Location

Airport:

Trip Planner

Search our weather history database for the weather conditions in past years. The results will help you decide how hot, cold, wet, or windy it might be!

Date:

Astronomy

Nov. 24, 2014 Rise Set
Actual Time 7:42 AM EST 5:17 PM EST
Civil Twilight 7:11 AM EST 5:48 PM EST
Nautical Twilight 6:37 AM EST 6:22 PM EST
Astronomical Twilight 6:04 AM EST 6:55 PM EST
Moon 9:33 AM EST (11/24) 7:39 PM EST (11/24)
Length of Visible Light 10h 36m
Length of Day
9h 35m
Waxing Crescent, 6% of the Moon is Illuminated
Nov 24
Waxing Crescent
Nov 29
First Quarter
Dec 6
Full
Dec 14
Last Quarter
Dec 21
New

Hourly Weather History & Observations

Time (EST) Temp. Windchill Dew Point Humidity Pressure Visibility Wind Dir Wind Speed Gust Speed Precip Events Conditions
12:15 AM 51.8 °F - 51.8 °F 100% 29.10 in 5.0 mi South 4.6 mph - 0.03 in Rain Rain
12:35 AM 51.8 °F - 51.8 °F 100% 29.09 in 7.0 mi South 4.6 mph - 0.06 in Rain Rain
12:55 AM 51.8 °F - 51.8 °F 100% 29.09 in 7.0 mi SSW 8.1 mph - 0.09 in Rain Rain
1:15 AM 51.8 °F - 51.8 °F 100% 29.09 in 5.0 mi SW 6.9 mph - 0.02 in Rain Rain
1:35 AM 53.6 °F - 51.8 °F 94% 29.09 in 7.0 mi SW 9.2 mph 19.6 mph 0.04 in Rain Rain
1:55 AM 51.8 °F - 51.8 °F 100% 29.10 in 10.0 mi SW 16.1 mph 23.0 mph 0.05 in Rain Light Rain
2:15 AM 51.8 °F - 51.8 °F 100% 29.10 in 7.0 mi SW 12.7 mph 18.4 mph 0.01 in Rain Light Rain
2:35 AM 51.8 °F - 51.8 °F 100% 29.11 in 10.0 mi SW 16.1 mph 25.3 mph 0.01 in Rain Rain
2:55 AM 51.8 °F - 51.8 °F 100% 29.12 in 10.0 mi WSW 16.1 mph 21.9 mph 0.01 in Rain Rain
3:15 AM 51.8 °F - 50.0 °F 94% 29.13 in 10.0 mi WSW 15.0 mph 20.7 mph N/A Rain Light Rain
3:35 AM 51.8 °F - 50.0 °F 94% 29.14 in 7.0 mi WSW 12.7 mph 19.6 mph 0.01 in Rain Rain
3:55 AM 51.8 °F - 50.0 °F 94% 29.15 in 4.0 mi SW 12.7 mph 18.4 mph 0.03 in Rain Heavy Rain
4:15 AM 51.8 °F - 50.0 °F 94% 29.15 in 4.0 mi SW 11.5 mph 16.1 mph N/A   Drizzle
4:35 AM 51.8 °F - 50.0 °F 94% 29.15 in 5.0 mi SW 5.8 mph - N/A Rain Rain
4:55 AM 51.8 °F - 51.8 °F 100% 29.15 in 3.0 mi SW 9.2 mph - 0.01 in Rain Heavy Rain
5:15 AM 51.8 °F - 51.8 °F 100% 29.14 in 4.0 mi SSW 5.8 mph - N/A Rain Rain
5:35 AM 51.8 °F - 51.8 °F 100% 29.14 in 4.0 mi SSW 8.1 mph - N/A Rain Light Rain
5:55 AM 51.8 °F - 51.8 °F 100% 29.14 in 7.0 mi SSW 5.8 mph - N/A   Overcast
6:15 AM 51.8 °F - 51.8 °F 100% 29.13 in 3.0 mi SSW 5.8 mph - 0.01 in   Heavy Drizzle
6:35 AM 51.8 °F - 51.8 °F 100% 29.12 in 10.0 mi SSW 8.1 mph 16.1 mph 0.01 in   Overcast
6:55 AM 51.8 °F - 51.8 °F 100% 29.12 in 10.0 mi SSW 6.9 mph 16.1 mph 0.01 in Rain Light Rain
7:35 AM 53.6 °F - 51.8 °F 94% 29.11 in 10.0 mi SSW 5.8 mph - N/A   Overcast
7:55 AM 53.6 °F - 51.8 °F 94% 29.10 in 10.0 mi South 8.1 mph 16.1 mph N/A   Overcast
8:15 AM 53.6 °F - 51.8 °F 94% 29.10 in 10.0 mi SSW 9.2 mph 20.7 mph N/A   Overcast
8:35 AM 53.6 °F - 51.8 °F 94% 29.10 in 10.0 mi SSW 9.2 mph 17.3 mph N/A   Overcast
8:55 AM 53.6 °F - 51.8 °F 94% 29.10 in 10.0 mi SSW 9.2 mph 17.3 mph N/A   Overcast
9:35 AM 53.6 °F - 50.0 °F 88% 29.10 in 10.0 mi SSW 9.2 mph 19.6 mph N/A   Overcast
9:55 AM 53.6 °F - 50.0 °F 88% 29.11 in 10.0 mi SW 15.0 mph 24.2 mph N/A   Overcast
10:15 AM 46.4 °F 37.9 °F 44.6 °F 93% 29.16 in 4.0 mi SW 25.3 mph 38.0 mph N/A Rain Rain
10:35 AM 42.8 °F 33.8 °F 41.0 °F 93% 29.20 in 5.0 mi SW 21.9 mph 39.1 mph N/A Rain Light Rain
10:55 AM 41.0 °F 30.5 °F 37.4 °F 87% 29.23 in 5.0 mi WSW 26.5 mph 41.4 mph N/A Rain Light Rain
11:15 AM 39.2 °F 27.2 °F 35.6 °F 87% 29.26 in 7.0 mi WSW 31.1 mph 38.0 mph N/A   Overcast
11:35 AM 39.2 °F 28.7 °F 35.6 °F 87% 29.29 in 4.0 mi WSW 23.0 mph 36.8 mph N/A   Drizzle
11:55 AM 37.4 °F 25.2 °F 33.8 °F 87% 29.31 in 10.0 mi WSW 28.8 mph 44.9 mph N/A   Overcast
12:15 PM 37.4 °F 25.4 °F 32.0 °F 81% 29.34 in 7.0 mi WSW 27.6 mph 41.4 mph N/A   Overcast
12:35 PM 35.6 °F 23.7 °F 32.0 °F 87% 29.36 in 10.0 mi WSW 24.2 mph 40.3 mph N/A   Overcast
12:55 PM 35.6 °F 23.4 °F 32.0 °F 87% 29.38 in 10.0 mi WSW 25.3 mph 39.1 mph N/A   Overcast
1:35 PM 35.6 °F 24.8 °F 32.0 °F 87% 29.41 in 10.0 mi WSW 19.6 mph 33.4 mph N/A   Overcast
1:55 PM 35.6 °F 23.7 °F 32.0 °F 87% 29.43 in 10.0 mi WSW 24.2 mph 36.8 mph N/A Rain Light Rain
2:15 PM 35.6 °F 23.2 °F 32.0 °F 87% 29.45 in 10.0 mi WSW 26.5 mph 36.8 mph N/A   Overcast
2:35 PM 35.6 °F 25.2 °F 32.0 °F 87% 29.48 in 10.0 mi SW 18.4 mph 43.7 mph N/A   Overcast
2:55 PM 35.6 °F 23.0 °F 32.0 °F 87% 29.48 in 10.0 mi WSW 27.6 mph 36.8 mph N/A   Overcast
3:15 PM 35.6 °F 22.1 °F 32.0 °F 87% 29.51 in 10.0 mi WSW 32.2 mph 41.4 mph N/A   Overcast
3:35 PM 33.8 °F 21.9 °F 30.2 °F 87% 29.52 in 10.0 mi WSW 21.9 mph 38.0 mph N/A   Overcast
3:55 PM 33.8 °F 21.3 °F 30.2 °F 87% 29.54 in 3.0 mi WSW 24.2 mph 34.5 mph N/A Snow Light Snow
4:15 PM 33.8 °F 20.3 °F 30.2 °F 87% 29.56 in 7.0 mi WSW 28.8 mph 35.7 mph N/A   Overcast
4:35 PM 32.0 °F 20.8 °F 32.0 °F 100% 29.58 in 3.0 mi WSW 17.3 mph 31.1 mph N/A Rain Light Rain
4:55 PM 32.0 °F 20.8 °F 32.0 °F 100% 29.59 in 3.0 mi WSW 17.3 mph 33.4 mph N/A Rain Light Rain
5:15 PM 32.0 °F 20.5 °F 32.0 °F 100% 29.60 in 5.0 mi SW 18.4 mph 26.5 mph N/A   Drizzle
5:35 PM 32.0 °F 18.6 °F 30.2 °F 93% 29.62 in 7.0 mi WSW 25.3 mph 33.4 mph N/A   Light Drizzle
5:55 PM 32.0 °F 17.9 °F 28.4 °F 87% 29.63 in 10.0 mi WSW 28.8 mph 35.7 mph N/A   Overcast
6:15 PM 32.0 °F 19.5 °F 28.4 °F 87% 29.65 in 10.0 mi WSW 21.9 mph 42.6 mph N/A   Overcast
6:35 PM 32.0 °F 19.5 °F 28.4 °F 87% 29.67 in 10.0 mi WSW 21.9 mph 41.4 mph N/A   Overcast
6:55 PM 32.0 °F 18.9 °F 28.4 °F 87% 29.67 in 10.0 mi WSW 24.2 mph 35.7 mph N/A   Overcast
7:15 PM 32.0 °F 18.6 °F 28.4 °F 87% 29.68 in 10.0 mi WSW 25.3 mph 36.8 mph N/A   Overcast
7:35 PM 32.0 °F 18.1 °F 28.4 °F 87% 29.69 in 10.0 mi WSW 27.6 mph 36.8 mph N/A   Overcast
7:55 PM 32.0 °F 19.5 °F 28.4 °F 87% 29.70 in 10.0 mi WSW 21.9 mph 35.7 mph N/A   Overcast
8:15 PM 32.0 °F 18.9 °F 28.4 °F 87% 29.71 in 10.0 mi WSW 24.2 mph 32.2 mph N/A   Overcast
8:35 PM 32.0 °F 18.1 °F 28.4 °F 87% 29.72 in 10.0 mi WSW 27.6 mph 41.4 mph N/A   Overcast
8:55 PM 32.0 °F 20.1 °F 28.4 °F 87% 29.73 in 10.0 mi WSW 19.6 mph 32.2 mph N/A   Overcast
9:15 PM 32.0 °F 22.5 °F 28.4 °F 87% 29.74 in 10.0 mi WSW 12.7 mph 28.8 mph N/A   Overcast
9:35 PM 32.0 °F 20.1 °F 28.4 °F 87% 29.75 in 10.0 mi WSW 19.6 mph 27.6 mph N/A   Overcast
9:55 PM 32.0 °F 19.8 °F 30.2 °F 93% 29.76 in 4.0 mi WSW 20.7 mph 26.5 mph N/A Snow Light Snow
10:15 PM 32.0 °F 18.9 °F 30.2 °F 93% 29.77 in 7.0 mi WSW 24.2 mph 31.1 mph N/A   Overcast
10:35 PM 30.2 °F 17.1 °F 28.4 °F 93% 29.79 in 7.0 mi WSW 21.9 mph 28.8 mph N/A   Overcast
10:55 PM 30.2 °F 20.2 °F 28.4 °F 93% 29.79 in 3.0 mi WSW 12.7 mph 23.0 mph N/A Snow Light Snow
11:15 PM 30.2 °F 19.8 °F 28.4 °F 93% 29.80 in 3.0 mi WSW 13.8 mph 19.6 mph N/A Snow Light Snow
11:35 PM 30.2 °F 18.5 °F 28.4 °F 93% 29.80 in 7.0 mi WSW 17.3 mph 23.0 mph N/A Snow Light Snow
11:55 PM 30.2 °F 16.8 °F 28.4 °F 93% 29.81 in 7.0 mi WSW 23.0 mph 28.8 mph N/A Snow Light Snow